Weather History for Athens Eleftherios, Greece

Change the Weather History Date:

Thursday, November 8, 2012

  Actual Average (LGEL) Record (LGEL)
Temperature  
Mean Temperature 58 °F -  
Max Temperature 60 °F 65 °F 77 °F (2000)
Min Temperature 55 °F 51 °F 46 °F (2006)
Degree Days  
Heating Degree Days 8    
Growing Degree Days 8 (Base 50)    
Moisture  
Dew Point 45 °F    
Average Humidity 65    
Maximum Humidity 88    
Minimum Humidity 48    
Precipitation  
Precipitation 0.00 in - - ()
Sea Level Pressure  
Sea Level Pressure 30.07 in    
Wind  
Wind Speed 14 mph ()    
Max Wind Speed 28 mph    
Max Gust Speed 38 mph    
Visibility 6.1 miles    
Events Rain    
Averages and records for this station are not official NWS values.
T = Trace of Precipitation, MM = Missing Value Source: Averaged Metar Reports

Daily Weather History Graph

Daily Weather History Graph

Search for Another Location

Airport:

Trip Planner

Search our weather history database for the weather conditions in past years. The results will help you decide how hot, cold, wet, or windy it might be!

Date:

Astronomy

Nov. 08, 2012 Rise Set
Actual Time 6:57 AM EET 5:18 PM EET
Civil Twilight 6:29 AM EET 5:45 PM EET
Nautical Twilight 5:58 AM EET 6:17 PM EET
Astronomical Twilight 5:27 AM EET 6:47 PM EET
Moon 12:39 AM EET (11/8) 1:43 PM EET (11/8)
Length of Visible Light 11h 15m
Length of Day
10h 20m
Waning Crescent, 36% of the Moon is Illuminated
Nov 8
Waning Crescent
Nov 14
New
Nov 20
First Quarter
Nov 28
Full
Dec 6
Last Quarter

Hourly Weather History & Observations

Time (EET) Temp. Dew Point Humidity Pressure Visibility Wind Dir Wind Speed Gust Speed Precip Events Conditions
12:20 AM 59.0 °F 55.4 °F 88% 29.98 in 6.2 mi NNE 15.0 mph - N/A Rain Light Rain
1:50 AM 59.0 °F 51.8 °F 77% 29.95 in 6.2 mi North 10.4 mph - N/A   Scattered Clouds
2:20 AM 59.0 °F 50.0 °F 72% 29.95 in 6.2 mi North 6.9 mph - N/A   Mostly Cloudy
2:50 AM 60.8 °F 51.8 °F 72% 29.95 in 6.2 mi NNW 13.8 mph - N/A   Mostly Cloudy
3:20 AM 59.0 °F 51.8 °F 77% 29.98 in 6.2 mi North 11.5 mph - N/A   Drizzle
3:50 AM 57.2 °F 51.8 °F 82% 29.98 in 6.2 mi NNW 6.9 mph - N/A   Drizzle
4:20 AM 57.2 °F 51.8 °F 82% 29.98 in 5.6 mi NNE 25.3 mph 38.0 mph N/A Rain Light Rain
5:20 AM 57.2 °F 50.0 °F 77% 30.01 in 6.2 mi North 20.7 mph - N/A   Mostly Cloudy
5:50 AM 57.2 °F 50.0 °F 77% 30.01 in 6.2 mi North 17.3 mph - N/A   Mostly Cloudy
6:20 AM 57.2 °F 50.0 °F 77% 30.04 in 6.2 mi North 25.3 mph - N/A   Mostly Cloudy
6:50 AM 57.2 °F 48.2 °F 72% 30.04 in 6.2 mi North 27.6 mph - N/A   Mostly Cloudy
7:20 AM 57.2 °F 46.4 °F 67% 30.04 in 6.2 mi North 18.4 mph - N/A   Mostly Cloudy
7:50 AM 57.2 °F 48.2 °F 72% 30.06 in 6.2 mi North 18.4 mph - N/A   Mostly Cloudy
8:20 AM 55.4 °F 48.2 °F 77% 30.06 in 6.2 mi North 21.9 mph 34.5 mph N/A Rain Light Rain
8:50 AM 55.4 °F 50.0 °F 82% 30.06 in 5.0 mi North 19.6 mph 31.1 mph N/A Rain Light Rain
9:20 AM 55.4 °F 50.0 °F 82% 30.09 in 5.6 mi North 17.3 mph 29.9 mph N/A Rain Light Rain
9:50 AM 55.4 °F 48.2 °F 77% 30.09 in 6.2 mi North 13.8 mph - N/A   Mostly Cloudy
10:20 AM 57.2 °F 48.2 °F 72% 30.09 in 6.2 mi North 15.0 mph - N/A   Mostly Cloudy
10:50 AM 57.2 °F 48.2 °F 72% 30.09 in 6.2 mi North 19.6 mph - N/A   Mostly Cloudy
11:20 AM 57.2 °F 48.2 °F 72% 30.09 in 6.2 mi North 19.6 mph 35.7 mph N/A   Mostly Cloudy
11:50 AM 59.0 °F 46.4 °F 63% 30.09 in 6.2 mi North 18.4 mph - N/A   Mostly Cloudy
12:20 PM 59.0 °F 44.6 °F 59% 30.09 in 6.2 mi North 20.7 mph 32.2 mph N/A   Mostly Cloudy
12:50 PM 59.0 °F 42.8 °F 55% 30.09 in 6.2 mi North 17.3 mph 29.9 mph N/A   Mostly Cloudy
1:20 PM 60.8 °F 41.0 °F 48% 30.09 in 6.2 mi North 18.4 mph 32.2 mph N/A   Scattered Clouds
1:50 PM 60.8 °F 42.8 °F 52% 30.09 in 6.2 mi North 18.4 mph - N/A   Mostly Cloudy
2:20 PM 59.0 °F 39.2 °F 48% 30.06 in 6.2 mi NNW 16.1 mph - N/A   Scattered Clouds
2:50 PM 59.0 °F 44.6 °F 59% 30.09 in 6.2 mi North 19.6 mph - N/A   Mostly Cloudy
3:20 PM 59.0 °F 42.8 °F 55% 30.09 in 6.2 mi North 18.4 mph - N/A   Mostly Cloudy
3:50 PM 59.0 °F 41.0 °F 51% 30.09 in 6.2 mi NNE 19.6 mph - N/A   Scattered Clouds
4:20 PM 59.0 °F 39.2 °F 48% 30.09 in 6.2 mi NNE 20.7 mph - N/A   Scattered Clouds
4:50 PM 59.0 °F 41.0 °F 51% 30.09 in 6.2 mi North 17.3 mph - N/A   Scattered Clouds
5:20 PM 57.2 °F 44.6 °F 63% 30.09 in 6.2 mi North 11.5 mph - N/A   Scattered Clouds
5:50 PM 57.2 °F 42.8 °F 59% 30.12 in 6.2 mi North 11.5 mph - N/A   Partly Cloudy
6:20 PM 57.2 °F 42.8 °F 59% 30.12 in 6.2 mi NNW 4.6 mph - N/A   Scattered Clouds
6:50 PM 57.2 °F 42.8 °F 59% 30.12 in 6.2 mi NW 5.8 mph - N/A   Scattered Clouds
7:20 PM 55.4 °F 42.8 °F 63% 30.12 in 6.2 mi Variable 3.5 mph - N/A   Scattered Clouds
7:50 PM 55.4 °F 41.0 °F 58% 30.12 in 6.2 mi NW 6.9 mph - N/A   Partly Cloudy
8:20 PM 55.4 °F 41.0 °F 58% 30.12 in 6.2 mi NW 9.2 mph - N/A   Partly Cloudy
8:50 PM 57.2 °F 41.0 °F 55% 30.12 in 6.2 mi WNW 8.1 mph - N/A   Partly Cloudy
9:20 PM 55.4 °F 39.2 °F 54% 30.12 in 6.2 mi NW 9.2 mph - N/A   Partly Cloudy
9:50 PM 55.4 °F 39.2 °F 54% 30.12 in 6.2 mi WNW 13.8 mph - N/A   Partly Cloudy
10:20 PM 55.4 °F 39.2 °F 54% 30.12 in 6.2 mi WNW 10.4 mph - N/A   Partly Cloudy
10:50 PM 55.4 °F 39.2 °F 54% 30.12 in 6.2 mi WNW 9.2 mph - N/A   Partly Cloudy
11:20 PM 55.4 °F 39.2 °F 54% 30.12 in 6.2 mi WNW 11.5 mph - N/A   Partly Cloudy
11:50 PM 57.2 °F 39.2 °F 51% 30.12 in 6.2 mi NW 11.5 mph - N/A   Partly Cloudy